Total_Precipitation_Accumulation
1.06 1.23 1.13 0.81 0.70 0.61 0.52 0.53 0.53 0.45 0.40 0.55 0.50 0.40 0.29 0.28 0.27 0.31 0.41 0.45 0.52 0.51 0.55 0.68 0.83 1.01 1.19 1.33 1.42 1.50 1.69 1.78 2.01 2.17 2.08 1.98 1.92 1.90 1.86 1.81 1.80 1.75 1.77 1.77
1.22 1.00 0.60 0.48 0.52 0.59 0.64 0.67 0.60 0.51 0.46 0.60 0.58 0.46 0.32 0.31 0.30 0.31 0.38 0.43 0.47 0.49 0.56 0.64 0.79 0.94 1.08 1.20 1.28 1.37 1.57 1.75 1.92 2.07 2.03 1.90 1.87 1.85 1.86 1.81 1.85 1.92 1.95 1.94
1.01 0.64 0.40 0.60 0.73 0.74 0.67 0.62 0.57 0.56 0.56 0.62 0.66 0.59 0.38 0.32 0.28 0.31 0.36 0.43 0.49 0.46 0.50 0.56 0.67 0.83 0.96 1.09 1.15 1.28 1.52 1.71 1.94 2.11 2.26 2.21 2.19 2.15 2.07 1.94 1.84 1.83 1.88 1.85
0.79 0.48 0.48 0.69 0.79 0.74 0.68 0.43 0.46 0.57 0.83 0.95 0.79 0.89 0.49 0.35 0.31 0.32 0.35 0.37 0.44 0.46 0.50 0.57 0.64 0.75 0.86 0.98 1.07 1.20 1.52 1.75 1.94 2.10 2.21 2.27 2.22 2.14 2.00 1.87 1.81 1.75 1.71 1.72
0.93 0.57 0.57 0.68 0.63 0.63 0.59 0.42 0.49 0.67 0.92 1.03 0.77 0.89 0.56 0.36 0.39 0.38 0.37 0.36 0.37 0.41 0.46 0.54 0.62 0.72 0.85 0.98 1.02 1.12 1.35 1.62 1.85 2.05 2.12 2.19 2.17 2.08 2.03 2.02 1.97 1.94 1.85 1.75
0.69 0.49 0.59 0.58 0.48 0.56 0.68 0.76 0.85 0.98 1.43 1.62 0.68 0.65 0.52 0.43 0.51 0.46 0.40 0.37 0.34 0.37 0.41 0.50 0.62 0.70 0.84 1.07 1.10 1.14 1.24 1.44 1.70 1.89 1.97 2.01 2.04 2.01 1.98 2.02 2.00 1.96 1.86 1.74
0.92 0.62 0.54 0.53 0.71 0.87 1.10 1.60 2.35 2.49 2.46 1.47 0.39 0.45 0.54 0.43 0.41 0.46 0.46 0.39 0.33 0.35 0.40 0.46 0.57 0.72 0.80 0.99 1.10 1.17 1.24 1.28 1.47 1.71 1.82 1.79 1.87 1.86 1.83 1.87 1.85 1.79 1.74 1.66
1.01 0.82 0.58 0.57 0.79 1.11 1.19 1.47 1.88 1.77 1.23 0.62 0.30 0.37 0.43 0.37 0.34 0.35 0.39 0.36 0.33 0.33 0.40 0.45 0.47 0.66 0.82 0.90 0.99 1.10 1.20 1.24 1.34 1.47 1.63 1.67 1.80 1.80 1.74 1.77 1.79 1.73 1.63 1.53
1.01 0.70 0.40 0.42 0.49 0.67 1.01 1.15 1.02 1.28 0.88 0.61 0.45 0.31 0.30 0.26 0.27 0.27 0.33 0.36 0.38 0.39 0.42 0.46 0.49 0.61 0.76 0.83 0.91 1.04 1.16 1.27 1.30 1.31 1.46 1.55 1.63 1.69 1.65 1.62 1.64 1.64 1.59 1.55
1.12 0.97 0.47 0.43 0.58 0.68 0.81 0.93 1.21 1.74 1.45 0.81 0.43 0.30 0.38 0.34 0.33 0.29 0.32 0.38 0.40 0.42 0.42 0.47 0.54 0.61 0.73 0.81 0.88 0.99 1.06 1.23 1.39 1.35 1.38 1.50 1.54 1.59 1.62 1.56 1.52 1.44 1.41 1.49
1.10 1.29 0.82 0.67 0.88 0.86 0.81 1.10 1.40 1.55 1.29 0.97 0.58 0.45 0.45 0.40 0.38 0.39 0.38 0.45 0.49 0.48 0.47 0.49 0.59 0.67 0.72 0.78 0.85 1.01 1.08 1.17 1.38 1.46 1.43 1.44 1.52 1.56 1.61 1.60 1.49 1.36 1.30 1.34
1.06 1.48 1.14 0.68 0.57 0.54 0.68 0.88 1.10 1.50 1.21 0.80 0.68 0.48 0.35 0.32 0.33 0.35 0.38 0.44 0.51 0.52 0.55 0.57 0.66 0.71 0.72 0.78 0.84 0.96 1.02 1.10 1.28 1.45 1.53 1.50 1.51 1.62 1.65 1.58 1.51 1.44 1.38 1.34
1.69 2.12 1.81 1.31 1.00 0.86 0.96 0.86 0.87 1.03 1.10 0.85 0.72 0.46 0.26 0.19 0.20 0.25 0.34 0.43 0.49 0.50 0.57 0.62 0.66 0.67 0.72 0.75 0.82 0.95 0.99 0.98 1.07 1.27 1.43 1.55 1.59 1.63 1.68 1.63 1.53 1.52 1.52 1.48
2.22 2.37 1.60 1.32 1.05 0.95 0.95 0.75 0.75 1.11 1.36 0.78 0.45 0.38 0.25 0.20 0.22 0.26 0.33 0.40 0.47 0.51 0.57 0.55 0.58 0.63 0.70 0.68 0.74 0.88 0.95 0.94 0.94 1.07 1.26 1.39 1.51 1.64 1.67 1.67 1.63 1.57 1.54 1.53
2.15 2.11 0.91 0.50 0.42 0.53 0.60 0.54 0.59 0.82 0.79 0.69 0.38 0.32 0.35 0.36 0.38 0.39 0.42 0.42 0.43 0.48 0.54 0.55 0.56 0.61 0.66 0.62 0.67 0.77 0.89 0.91 0.91 0.94 1.10 1.29 1.40 1.58 1.65 1.65 1.64 1.66 1.67 1.56
1.92 1.88 0.95 0.56 0.31 0.42 0.49 0.41 0.42 0.48 0.44 0.42 0.29 0.28 0.25 0.31 0.34 0.36 0.41 0.45 0.48 0.53 0.57 0.56 0.55 0.56 0.60 0.62 0.66 0.70 0.78 0.84 0.89 0.94 0.98 1.17 1.39 1.53 1.62 1.63 1.66 1.66 1.67 1.63
1.77 1.76 1.52 0.96 0.44 0.74 0.88 0.54 0.48 0.48 0.45 0.46 0.49 0.42 0.29 0.28 0.33 0.43 0.48 0.50 0.53 0.58 0.61 0.59 0.57 0.56 0.60 0.62 0.64 0.70 0.75 0.79 0.83 0.84 0.87 1.01 1.20 1.38 1.51 1.57 1.64 1.76 1.74 1.68
1.38 1.56 1.96 1.47 1.11 1.47 0.82 0.43 0.42 0.50 0.54 0.52 0.50 0.43 0.39 0.39 0.40 0.44 0.52 0.58 0.56 0.59 0.61 0.59 0.60 0.60 0.62 0.62 0.63 0.70 0.73 0.72 0.75 0.77 0.75 0.83 0.96 1.14 1.33 1.50 1.57 1.66 1.76 1.74
0.83 1.46 2.22 2.00 1.58 0.95 0.46 0.38 0.54 0.61 0.63 0.55 0.49 0.40 0.36 0.34 0.33 0.38 0.47 0.61 0.68 0.67 0.62 0.59 0.58 0.57 0.57 0.61 0.65 0.65 0.68 0.71 0.71 0.72 0.74 0.75 0.83 0.95 1.12 1.29 1.42 1.53 1.64 1.68
0.86 1.43 2.37 2.17 1.70 0.92 0.51 0.34 0.39 0.53 0.72 0.50 0.47 0.47 0.43 0.41 0.46 0.48 0.50 0.58 0.65 0.63 0.60 0.59 0.54 0.51 0.54 0.60 0.63 0.63 0.67 0.70 0.73 0.73 0.74 0.75 0.79 0.84 0.96 1.11 1.26 1.42 1.52 1.59
1.21 1.85 2.17 1.70 1.46 0.77 0.46 0.34 0.34 0.73 0.84 0.49 0.49 0.54 0.52 0.56 0.59 0.54 0.48 0.49 0.54 0.55 0.55 0.53 0.50 0.49 0.56 0.59 0.62 0.67 0.66 0.70 0.71 0.70 0.70 0.72 0.73 0.76 0.84 1.00 1.14 1.30 1.42 1.52
0.89 1.22 1.21 1.13 1.38 0.87 0.47 0.43 0.68 0.84 0.55 0.49 0.48 0.50 0.53 0.50 0.48 0.47 0.45 0.44 0.43 0.46 0.47 0.48 0.49 0.51 0.54 0.56 0.60 0.68 0.67 0.66 0.64 0.63 0.63 0.65 0.66 0.70 0.78 0.92 1.05 1.18 1.32 1.45
0.66 0.87 0.92 0.86 0.82 0.62 0.56 0.65 0.68 0.61 0.56 0.49 0.49 0.47 0.49 0.51 0.49 0.46 0.43 0.41 0.41 0.43 0.43 0.44 0.48 0.50 0.51 0.52 0.57 0.67 0.68 0.62 0.59 0.59 0.61 0.62 0.64 0.68 0.72 0.79 0.95 1.15 1.23 1.34
0.48 0.46 0.63 0.64 0.51 0.42 0.41 0.43 0.46 0.50 0.52 0.48 0.49 0.50 0.50 0.51 0.49 0.43 0.38 0.37 0.37 0.39 0.40 0.39 0.41 0.45 0.51 0.56 0.58 0.62 0.64 0.62 0.54 0.57 0.60 0.60 0.63 0.69 0.69 0.72 0.83 1.03 1.19 1.28
0.46 0.43 0.50 0.54 0.42 0.35 0.31 0.33 0.37 0.39 0.38 0.38 0.40 0.45 0.48 0.47 0.42 0.38 0.35 0.32 0.34 0.37 0.38 0.38 0.40 0.45 0.55 0.62 0.59 0.56 0.58 0.59 0.55 0.56 0.61 0.61 0.61 0.66 0.70 0.76 0.84 0.94 1.08 1.31
0.39 0.45 0.53 0.54 0.42 0.47 0.39 0.32 0.32 0.33 0.33 0.35 0.36 0.38 0.39 0.39 0.37 0.31 0.30 0.31 0.32 0.34 0.34 0.36 0.38 0.42 0.51 0.57 0.57 0.54 0.55 0.56 0.57 0.58 0.59 0.62 0.65 0.66 0.67 0.76 0.89 1.02 1.07 1.18